星链-32138 (STARLINK-32138)

导读

STARLINK-32138是美国太空探索技术公司(SpaceX)“星链”星座的一颗卫星,于2024年7月27日发射。该卫星承担着为全球提供高速互联网服务的任务,属于Starlink Gen2系列卫星,延续了星链星座低轨组网部署特点,助力扩展星链网络的全球覆盖范围,提升服务容量与稳定性。

基本信息
目录编号:
60255
目录名称:
STARLINK-32138
国际标识:
2024-131A
轨道中心:
EARTH
卫星名称:
星链-32138 (STARLINK-32138)
卫星全名:
星链-32138 (STARLINK-32138)
卫星状态:
在轨 (已飞行691 天)
发射日期:
2024-07-27 UTC
国别 :
美国 (US)
星等 :
--
轨道信息
数据来源 国际轨道数据
星历时间: 2026-06-17T22:51:34+0800
9小时前
查看轨道信息
半长轴: 6848.842km
偏心率: 0.0001202
轨道倾角: 53.162°
近地点辐角 97.031°
升交点赤经 307.892°
平近点角 263.083°
近地点: 469.881km
远地点: 471.529km
周期: 94.012分钟
每日圈数: 15.317118
详细信息
卫星平台:
Starlink v2.0 mini
运营商:
太空探索技术公司
运营商所在国:
美国
制造商(研发单位):
太空探索技术公司
制造商所在国:
美国
使用方式:
暂无
卫星简介
星链(Starlink)计划是由太空探索技术公司(SpaceX)提出的一个巨型低轨卫星互联网星座项目,计划在2019年至2024年间在太空搭建由约1.2万颗卫星组成的“星链”网络,其中1584颗将部署在地球上空550千米处的近地轨道,并从2020年开始工作。该卫星仍在工作。
2D轨道图
3D轨道图
轨道高度分析图
轨道倾角分析图
轨道综合分析图
查看轨道综合分析图